| time (UTC) | temp F | wind direction | speed MPH | gust MPH | rain 1hr in | rain 24hr in | rain mn in | humidity % | barometer mb |
| 20260505080609 | 66 | 18 | 2.0 | 4.0 | 0.00 | 0.00 | 0.00 | 52 | |
| 20260505080106 | 67 | 114 | 1.0 | 3.0 | 0.00 | 0.00 | 0.00 | 52 | |
| 20260505075601 | 67 | 33 | 6.0 | 9.0 | 0.00 | 0.00 | 0.00 | 51 | |
| 20260505075058 | 68 | 112 | 3.0 | 6.0 | 0.00 | 0.00 | 0.00 | 50 | |
| 20260505074555 | 67 | 345 | 3.0 | 4.0 | 0.00 | 0.00 | 0.00 | 51 | |
| 20260505074053 | 67 | 337 | 4.0 | 7.0 | 0.00 | 0.00 | 0.00 | 51 | |
| 20260505073550 | 68 | 33 | 2.0 | 7.0 | 0.00 | 0.00 | 0.00 | 51 | |
| 20260505073049 | 68 | 122 | 2.0 | 4.0 | 0.00 | 0.00 | 0.00 | 50 | |
| 20260505072544 | 68 | 34 | 2.0 | 6.0 | 0.00 | 0.00 | 0.00 | 53 | |
| 20260505072040 | 68 | 81 | 2.0 | 8.0 | 0.00 | 0.00 | 0.00 | 52 | |
| 20260505071536 | 69 | 26 | 4.0 | 7.0 | 0.00 | 0.00 | 0.00 | 53 | |
| 20260505071034 | 69 | 89 | 2.0 | 6.0 | 0.00 | 0.00 | 0.00 | 52 | |
| 20260505070531 | 69 | 198 | 4.0 | 6.0 | 0.00 | 0.00 | 0.00 | 54 | |
| 20260505070027 | 69 | 354 | 5.0 | 7.0 | 0.00 | 0.00 | 0.00 | 52 | |
| 20260505065523 | 69 | 358 | 10.0 | 17.0 | 0.00 | 0.00 | 0.00 | 55 | |
| 20260505065020 | 68 | 3 | 9.0 | 11.0 | 0.00 | 0.00 | 0.00 | 54 | |
| 20260505064517 | 68 | 95 | 5.0 | 10.0 | 0.00 | 0.00 | 0.00 | 56 | |
| 20260505064015 | 68 | 15 | 11.0 | 17.0 | 0.00 | 0.00 | 0.00 | 53 | |
| 20260505063512 | 68 | 15 | 4.0 | 9.0 | 0.00 | 0.00 | 0.00 | 55 | |
| 20260505063008 | 68 | 3 | 13.0 | 17.0 | 0.00 | 0.00 | 0.00 | 55 | |
| 20260505062505 | 68 | 5 | 6.0 | 9.0 | 0.00 | 0.00 | 0.00 | 54 | |
| 20260505062002 | 68 | 45 | 8.0 | 10.0 | 0.00 | 0.00 | 0.00 | 54 | |
| 20260505061500 | 68 | 58 | 9.0 | 15.0 | 0.00 | 0.00 | 0.00 | 57 | |
| 20260505060957 | 69 | 9 | 9.0 | 14.0 | 0.00 | 0.00 | 0.00 | 55 | |
| 20260505060454 | 68 | 355 | 13.0 | 16.0 | 0.00 | 0.00 | 0.00 | 57 | |
| 20260505055950 | 69 | 8 | 12.0 | 18.0 | 0.00 | 0.00 | 0.00 | 56 | |
| 20260505055446 | 69 | 14 | 13.0 | 15.0 | 0.00 | 0.00 | 0.00 | 55 | |
| 20260505054943 | 69 | 0 | 11.0 | 17.0 | 0.00 | 0.00 | 0.00 | 54 | |
| 20260505054441 | 68 | 356 | 8.0 | 16.0 | 0.00 | 0.00 | 0.00 | 54 | |
| 20260505053939 | 68 | 320 | 11.0 | 17.0 | 0.00 | 0.00 | 0.00 | 53 | |
| 20260505053436 | 67 | 352 | 4.0 | 15.0 | 0.00 | 0.00 | 0.00 | 55 | |
| 20260505052932 | 68 | 13 | 9.0 | 16.0 | 0.00 | 0.00 | 0.00 | 54 | |
| 20260505052429 | 67 | 7 | 9.0 | 16.0 | 0.00 | 0.00 | 0.00 | 54 | |
| 20260505051926 | 68 | 352 | 11.0 | 14.0 | 0.00 | 0.00 | 0.00 | 53 | |
| 20260505051423 | 67 | 347 | 13.0 | 14.0 | 0.00 | 0.00 | 0.00 | 54 | |
| 20260505050921 | 68 | 3 | 12.0 | 16.0 | 0.00 | 0.00 | 0.00 | 52 | |
| 20260505050420 | 68 | 11 | 11.0 | 14.0 | 0.00 | 0.00 | 0.00 | 52 | |
| 20260505041347 | 68 | 352 | 10.0 | 11.0 | 0.00 | 0.00 | 0.00 | 48 | |
| 20260505040844 | 69 | 359 | 10.0 | 13.0 | 0.00 | 0.00 | 0.00 | 44 | |
| 20260505040342 | 70 | 345 | 9.0 | 11.0 | 0.00 | 0.00 | 0.00 | 41 | |
| 20260505035838 | 70 | 15 | 3.0 | 6.0 | 0.00 | 0.00 | 0.00 | 41 | |
| 20260505035334 | 69 | 344 | 6.0 | 10.0 | 0.00 | 0.00 | 0.00 | 39 | |
| 20260505034832 | 69 | 15 | 0.0 | 7.0 | 0.00 | 0.00 | 0.00 | 38 | |
| 20260505034328 | 69 | 353 | 4.0 | 9.0 | 0.00 | 0.00 | 0.00 | 41 | |
| 20260505033825 | 67 | 35 | 3.0 | 4.0 | 0.00 | 0.00 | 0.00 | 38 | |
| 20260505033322 | 68 | 6 | 2.0 | 6.0 | 0.00 | 0.00 | 0.00 | 43 | |
| 20260505032820 | 69 | 354 | 0.0 | 3.0 | 0.00 | 0.00 | 0.00 | 33 | |
| 20260505032316 | 70 | 346 | 6.0 | 8.0 | 0.00 | 0.00 | 0.00 | 29 | |
| 20260505031814 | 68 | 355 | 2.0 | 4.0 | 0.00 | 0.00 | 0.00 | 30 | |
| 20260505031310 | 69 | 10 | 3.0 | 7.0 | 0.00 | 0.00 | 0.00 | 31 | |
| 20260505030807 | 68 | 335 | 2.0 | 4.0 | 0.00 | 0.00 | 0.00 | 33 | |
| 20260505030303 | 67 | 7 | 2.0 | 3.0 | 0.00 | 0.00 | 0.00 | 37 | |
| 20260505025758 | 67 | 1 | 8.0 | 9.0 | 0.00 | 0.00 | 0.00 | 32 | |
| 20260505025257 | 68 | 359 | 6.0 | 10.0 | 0.00 | 0.00 | 0.00 | 33 | |
| 20260505024755 | 67 | 9 | 2.0 | 7.0 | 0.00 | 0.00 | 0.00 | 37 | |
| 20260505024252 | 67 | 356 | 7.0 | 8.0 | 0.00 | 0.00 | 0.00 | 38 | |
| 20260505023749 | 69 | 342 | 7.0 | 9.0 | 0.00 | 0.00 | 0.00 | 34 | |
| 20260505023246 | 68 | 15 | 6.0 | 7.0 | 0.00 | 0.00 | 0.00 | 34 | |
| 20260505022743 | 67 | 355 | 5.0 | 11.0 | 0.00 | 0.00 | 0.00 | 37 | |
| 20260505022240 | 69 | 4 | 5.0 | 8.0 | 0.00 | 0.00 | 0.00 | 38 | |
| 20260505021737 | 65 | 320 | 1.0 | 3.0 | 0.00 | 0.00 | 0.00 | 42 | |
| 20260505021234 | 67 | 343 | 5.0 | 10.0 | 0.00 | 0.00 | 0.00 | 42 | |
| 20260505020729 | 66 | 339 | 3.0 | 4.0 | 0.00 | 0.00 | 0.00 | 40 | |
| 20260505020225 | 65 | 348 | 3.0 | 8.0 | 0.00 | 0.00 | 0.00 | 42 | |
| 20260505015723 | 66 | 2 | 4.0 | 13.0 | 0.00 | 0.00 | 0.00 | 41 | |
| 20260505015219 | 66 | 358 | 7.0 | 9.0 | 0.00 | 0.00 | 0.00 | 43 | |
| 20260505014716 | 65 | 16 | 4.0 | 8.0 | 0.00 | 0.00 | 0.00 | 42 | |
| 20260505014214 | 66 | 4 | 4.0 | 11.0 | 0.00 | 0.00 | 0.00 | 42 | |
| 20260505013711 | 69 | 7 | 9.0 | 13.0 | 0.00 | 0.00 | 0.00 | 39 | |
| 20260505013208 | 67 | 192 | 2.0 | 3.0 | 0.00 | 0.00 | 0.00 | 40 | |
| 20260505012706 | 66 | 355 | 9.0 | 10.0 | 0.00 | 0.00 | 0.00 | 42 | |
| 20260505012203 | 68 | 3 | 7.0 | 11.0 | 0.00 | 0.00 | 0.00 | 42 | |
| 20260505011658 | 70 | 308 | 1.0 | 2.0 | 0.00 | 0.00 | 0.00 | 37 | |
| 20260505011156 | 69 | 326 | 1.0 | 3.0 | 0.00 | 0.00 | 0.00 | 37 | |
| 20260505010651 | 69 | 38 | 0.0 | 2.0 | 0.00 | 0.00 | 0.00 | 37 | |
| 20260505010148 | 68 | 320 | 2.0 | 2.0 | 0.00 | 0.00 | 0.00 | 36 | |
| 20260505005644 | 68 | 118 | 1.0 | 2.0 | 0.00 | 0.00 | 0.00 | 38 | |
| 20260505005141 | 69 | 44 | 2.0 | 4.0 | 0.00 | 0.00 | 0.00 | 34 | |
| 20260505004638 | 69 | 358 | 1.0 | 2.0 | 0.00 | 0.00 | 0.00 | 35 | |
| 20260505004135 | 69 | 97 | 0.0 | 3.0 | 0.00 | 0.00 | 0.00 | 34 | |
| 20260505003632 | 69 | 263 | 1.0 | 2.0 | 0.00 | 0.00 | 0.00 | 34 | |
| 20260505003130 | 69 | 202 | 1.0 | 3.0 | 0.00 | 0.00 | 0.00 | 32 | |
| 20260505002625 | 68 | 19 | 1.0 | 2.0 | 0.00 | 0.00 | 0.00 | 35 | |
| 20260505002124 | 68 | 256 | 0.0 | 6.0 | 0.00 | 0.00 | 0.00 | 37 | |
| 20260505001621 | 68 | 339 | 2.0 | 6.0 | 0.00 | 0.00 | 0.00 | 35 | |
| 20260505001118 | 67 | 70 | 3.0 | 4.0 | 0.00 | 0.00 | 0.00 | 37 | |
| 20260505000615 | 66 | 193 | 1.0 | 2.0 | 0.00 | 0.00 | 0.00 | 38 | |
| 20260505000113 | 66 | 180 | 1.0 | 3.0 | 0.00 | 0.00 | 0.00 | 37 | |
| 20260504235609 | 66 | 28 | 0.0 | 3.0 | 0.00 | 0.00 | 0.00 | 39 | |
| 20260504235106 | 66 | 178 | 1.0 | 6.0 | 0.00 | 0.00 | 0.00 | 37 | |
| 20260504234603 | 66 | 199 | 2.0 | 2.0 | 0.00 | 0.00 | 0.00 | 37 | |
| 20260504234100 | 65 | 342 | 1.0 | 6.0 | 0.00 | 0.00 | 0.00 | 39 | |
| 20260504233555 | 65 | 344 | 1.0 | 3.0 | 0.00 | 0.00 | 0.00 | 39 | |
| 20260504233052 | 65 | 316 | 1.0 | 3.0 | 0.00 | 0.00 | 0.00 | 45 | |
| 20260504232549 | 65 | 115 | 2.0 | 4.0 | 0.00 | 0.00 | 0.00 | 45 | |
| 20260504232047 | 64 | 308 | 1.0 | 2.0 | 0.00 | 0.00 | 0.00 | 47 | |
| 20260504231543 | 64 | 182 | 3.0 | 3.0 | 0.00 | 0.00 | 0.00 | 48 | |
| 20260504231039 | 64 | 123 | 1.0 | 3.0 | 0.00 | 0.00 | 0.00 | 47 | |
| 20260504230536 | 63 | 304 | 2.0 | 2.0 | 0.00 | 0.00 | 0.00 | 49 | |
| 20260504230035 | 63 | 41 | 1.0 | 2.0 | 0.00 | 0.00 | 0.00 | 51 | |
| 20260504225531 | 62 | 346 | 2.0 | 3.0 | 0.00 | 0.00 | 0.00 | 51 | |
| 20260504225029 | 62 | 339 | 0.0 | 3.0 | 0.00 | 0.00 | 0.00 | 52 | |
| 20260504224525 | 61 | 175 | 1.0 | 2.0 | 0.00 | 0.00 | 0.00 | 55 | |
| 20260504224022 | 61 | 227 | 3.0 | 4.0 | 0.00 | 0.00 | 0.00 | 53 | |
| 20260504223519 | 61 | 186 | 3.0 | 3.0 | 0.00 | 0.00 | 0.00 | 55 | |
| 20260504223015 | 61 | 81 | 1.0 | 3.0 | 0.00 | 0.00 | 0.00 | 55 | |
| 20260504222512 | 60 | 284 | 1.0 | 3.0 | 0.00 | 0.00 | 0.00 | 57 | |
| 20260504222009 | 59 | 294 | 1.0 | 2.0 | 0.00 | 0.00 | 0.00 | 58 | |
| 20260504221507 | 59 | 225 | 2.0 | 2.0 | 0.00 | 0.00 | 0.00 | 57 | |
| 20260504221003 | 58 | 189 | 2.0 | 2.0 | 0.00 | 0.00 | 0.00 | 59 | |
| 20260504220500 | 58 | 311 | 1.0 | 4.0 | 0.00 | 0.00 | 0.00 | 59 | |
| 20260504215956 | 57 | 307 | 0.0 | 3.0 | 0.00 | 0.00 | 0.00 | 62 | |
| 20260504215453 | 57 | 340 | 2.0 | 2.0 | 0.00 | 0.00 | 0.00 | 63 | |
| 20260504214950 | 56 | 293 | 1.0 | 2.0 | 0.00 | 0.00 | 0.00 | 64 | |
| 20260504214446 | 56 | 201 | 4.0 | 6.0 | 0.00 | 0.00 | 0.00 | 63 | |
| 20260504213943 | 55 | 327 | 0.0 | 2.0 | 0.00 | 0.00 | 0.00 | 65 | |
| 20260504213439 | 55 | 226 | 1.0 | 6.0 | 0.00 | 0.00 | 0.00 | 64 | |
| 20260504212937 | 55 | 247 | 2.0 | 4.0 | 0.00 | 0.00 | 0.00 | 64 | |
| 20260504212432 | 55 | 172 | 1.0 | 2.0 | 0.00 | 0.00 | 0.00 | 66 | |
| 20260504211930 | 56 | 222 | 0.0 | 2.0 | 0.00 | 0.00 | 0.00 | 65 | |
| 20260504211426 | 55 | 326 | 0.0 | 1.0 | 0.00 | 0.00 | 0.00 | 66 | |
| 20260504210924 | 55 | 287 | 1.0 | 1.0 | 0.00 | 0.00 | 0.00 | 66 | |
| 20260504210420 | 54 | 319 | 0.0 | 0.0 | 0.00 | 0.00 | 0.00 | 66 | |
| 20260504205918 | 54 | 319 | 0.0 | 0.0 | 0.00 | 0.00 | 0.00 | 67 | |
| 20260504205415 | 53 | 324 | 0.0 | 2.0 | 0.00 | 0.00 | 0.00 | 67 | |
| 20260504204913 | 53 | 211 | 2.0 | 3.0 | 0.00 | 0.00 | 0.00 | 67 | |
| 20260504204411 | 52 | 212 | 2.0 | 2.0 | 0.00 | 0.00 | 0.00 | 70 | |
| 20260504203911 | 51 | 300 | 0.0 | 1.0 | 0.00 | 0.00 | 0.00 | 72 | |
| 20260504203408 | 51 | 252 | 0.0 | 1.0 | 0.00 | 0.00 | 0.00 | 74 | |
| 20260504202903 | 51 | 353 | 0.0 | 0.0 | 0.00 | 0.00 | 0.00 | 76 | |
| 20260504202400 | 51 | 344 | 0.0 | 1.0 | 0.00 | 0.00 | 0.00 | 76 | |
| 20260504201856 | 50 | 280 | 0.0 | 1.0 | 0.00 | 0.00 | 0.00 | 75 | |
| 20260504201354 | 50 | 320 | 0.0 | 0.0 | 0.00 | 0.00 | 0.00 | 75 | |
| 20260504200851 | 50 | 318 | 0.0 | 0.0 | 0.00 | 0.00 | 0.00 | 75 | |
| 20260504200348 | 51 | 313 | 0.0 | 0.0 | 0.00 | 0.00 | 0.00 | 74 | |
| 20260504195845 | 51 | 258 | 1.0 | 2.0 | 0.00 | 0.00 | 0.00 | 73 | |
| 20260504195340 | 51 | 296 | 1.0 | 2.0 | 0.00 | 0.00 | 0.00 | 73 | |
| 20260504194837 | 51 | 214 | 2.0 | 3.0 | 0.00 | 0.00 | 0.00 | 74 | |
| 20260504194333 | 51 | 237 | 1.0 | 4.0 | 0.00 | 0.00 | 0.00 | 74 | |
| 20260504193829 | 51 | 220 | 1.0 | 2.0 | 0.00 | 0.00 | 0.00 | 74 | |
| 20260504193327 | 51 | 230 | 2.0 | 2.0 | 0.00 | 0.00 | 0.00 | 75 | |
| 20260504192825 | 51 | 253 | 2.0 | 4.0 | 0.00 | 0.00 | 0.00 | 75 | |
| 20260504192323 | 51 | 246 | 0.0 | 3.0 | 0.00 | 0.00 | 0.00 | 75 | |
| 20260504191821 | 51 | 223 | 1.0 | 2.0 | 0.00 | 0.00 | 0.00 | 75 | |
| 20260504191318 | 51 | 206 | 2.0 | 3.0 | 0.00 | 0.00 | 0.00 | 75 | |
| 20260504190814 | 52 | 233 | 1.0 | 3.0 | 0.00 | 0.00 | 0.00 | 76 | |
| 20260504190310 | 52 | 235 | 2.0 | 3.0 | 0.00 | 0.00 | 0.00 | 76 | |
| 20260504185807 | 52 | 194 | 2.0 | 2.0 | 0.00 | 0.00 | 0.00 | 77 | |
| 20260504185304 | 52 | 285 | 0.0 | 2.0 | 0.00 | 0.00 | 0.00 | 77 | |
| 20260504184800 | 52 | 241 | 0.0 | 3.0 | 0.00 | 0.00 | 0.00 | 78 | |
| 20260504184255 | 52 | 311 | 0.0 | 4.0 | 0.00 | 0.00 | 0.00 | 78 | |
| 20260504183752 | 52 | 311 | 1.0 | 1.0 | 0.00 | 0.00 | 0.00 | 78 | |
| 20260504183248 | 52 | 262 | 0.0 | 4.0 | 0.00 | 0.00 | 0.00 | 78 | |
| 20260504182747 | 52 | 172 | 2.0 | 3.0 | 0.00 | 0.00 | 0.00 | 78 | |
| 20260504182243 | 52 | 271 | 1.0 | 2.0 | 0.00 | 0.00 | 0.00 | 78 | |
| 20260504181741 | 53 | 235 | 1.0 | 3.0 | 0.00 | 0.00 | 0.00 | 78 | |
| 20260504181238 | 53 | 267 | 1.0 | 4.0 | 0.00 | 0.00 | 0.00 | 78 | |
| 20260504180738 | 53 | 234 | 1.0 | 3.0 | 0.00 | 0.00 | 0.00 | 78 | |
| 20260504180236 | 53 | 190 | 1.0 | 2.0 | 0.00 | 0.00 | 0.00 | 77 | |
| 20260504175733 | 53 | 260 | 2.0 | 3.0 | 0.00 | 0.00 | 0.00 | 77 | |
| 20260504175229 | 53 | 230 | 2.0 | 4.0 | 0.00 | 0.00 | 0.00 | 76 | |
| 20260504174728 | 53 | 181 | 2.0 | 4.0 | 0.00 | 0.00 | 0.00 | 77 | |
| 20260504174225 | 53 | 214 | 2.0 | 4.0 | 0.00 | 0.00 | 0.00 | 77 | |
| 20260504173721 | 53 | 316 | 1.0 | 3.0 | 0.00 | 0.00 | 0.00 | 77 | |
| 20260504173219 | 53 | 221 | 1.0 | 2.0 | 0.00 | 0.00 | 0.00 | 77 | |
| 20260504172715 | 54 | 302 | 1.0 | 2.0 | 0.00 | 0.00 | 0.00 | 77 | |
| 20260504172211 | 54 | 164 | 4.0 | 4.0 | 0.00 | 0.00 | 0.00 | 77 | |
| 20260504171708 | 54 | 215 | 1.0 | 2.0 | 0.00 | 0.00 | 0.00 | 77 | |
| 20260504171205 | 54 | 215 | 1.0 | 2.0 | 0.00 | 0.00 | 0.00 | 78 | |
| 20260504170702 | 53 | 325 | 0.0 | 1.0 | 0.00 | 0.00 | 0.00 | 79 | |
| 20260504170159 | 54 | 335 | 0.0 | 2.0 | 0.00 | 0.00 | 0.00 | 79 | |
| 20260504160118 | 56 | 275 | 0.0 | 1.0 | 0.00 | 0.00 | 0.00 | 75 | |
| 20260504151045 | 55 | 328 | 0.0 | 1.0 | 0.00 | 0.00 | 0.00 | 74 | |
| 20260504150542 | 56 | 250 | 1.0 | 1.0 | 0.00 | 0.00 | 0.00 | 74 | |
| 20260504141008 | 56 | 352 | 1.0 | 3.0 | 0.00 | 0.03 | 0.03 | 76 | |
| 20260504140505 | 56 | 164 | 1.0 | 2.0 | 0.00 | 0.03 | 0.03 | 76 | |
| 20260504130429 | 58 | 205 | 4.0 | 4.0 | 0.00 | 0.03 | 0.03 | 74 | |
| 20260504110316 | 58 | 316 | 0.0 | 2.0 | 0.00 | 0.03 | 0.03 | 78 | |
| 20260504100234 | 59 | 200 | 4.0 | 7.0 | 0.00 | 0.03 | 0.03 | 75 | |
| 20260504081633 | 66 | 55 | 2.0 | 7.0 | 0.00 | 0.03 | 0.03 | 64 | |
| 20260504081129 | 68 | 177 | 2.0 | 3.0 | 0.00 | 0.03 | 0.03 | 62 |